YAOGAN-26

Last updated on Tue Oct 28 2025 00:02:31 GMT+0000 (Coordinated Universal Time)

1 40362U 14088A 25300.54566502 .00019167 00000+0 52882-3 0 9990 2 40362 97.0663 302.9374 0006478 148.4778 211.6856 15.37108630601842
UTC large
Height (km)
Speed (km/s)
/
Latitude / Longitude
Inclination (degrees)
Orbital Period (minutes)
Azimuth
Elevation
Range (km)
Doppler Factor

Next 0 passes for location: London (51.5072 / 0.1276)

Sorry there are no passes over London.